Location: An Tulaigh
(53.1928°N, 8.1647°W)
Time: 23:37:32
(UTC+00:00)

Cosmos 2360 Rocket - Pass Details

Date: 15 May 2026
Orbit: 831 x 845 km, 71.0° (Epoch: 11 June)

Event Time Altitude Azimuth Distance (km) Brightness Sun altitude
Rises 23:27:06 0° 320° (NW) 3,416 6.6 -16.5°
Reaches altitude 10° 23:30:13 10° 303° (WNW) 2,476 5.3 -16.6°
Maximum altitude 23:34:04 19° 260° (W) 1,913 4.1 -16.8°
Enters shadow 23:37:37 11° 219° (SW) 2,394 4.2 -16.9°
